Temp
21 24 26 28 28 29 27 26 26 27 27 30 31 28 27 31 33 33 34 33 31 30 29 28 28 27 27 26 26 25 25 24 25 25 24 24 24 24 25 24 23 23 23 23
20 24 26 26 29 29 29 28 27 28 27 27 28 29 28 30 31 31 31 32 31 30 30 29 29 29 28 27 27 26 26 27 25 25 24 24 24 24 24 25 25 24 24 23
18 23 25 24 26 29 29 29 28 26 27 28 27 27 27 30 31 31 31 31 31 31 31 29 28 29 28 28 27 27 26 26 26 26 25 25 25 24 24 24 24 24 24 24
16 20 20 23 26 28 29 29 30 29 28 26 26 26 28 31 31 31 31 30 30 31 31 30 30 30 30 29 28 27 27 26 26 25 25 25 25 25 24 24 24 24 25 24
15 19 22 25 24 23 28 20 21 23 28 28 26 25 23 24 25 26 27 28 29 29 29 30 31 30 30 29 29 28 28 27 27 27 26 26 25 25 25 24 23 23 23 23
15 17 20 17 20 22 25 17 20 21 23 27 24 20 20 22 23 24 25 26 28 29 28 28 29 30 31 30 29 29 28 28 28 27 27 27 26 26 25 25 24 24 23 23
15 16 15 18 20 20 20 16 19 19 20 21 20 20 21 22 22 23 24 25 26 27 27 27 28 28 29 30 30 30 29 29 28 28 28 27 27 26 25 24 24 23 22 22
16 16 13 16 19 16 17 18 18 18 18 19 20 20 20 20 19 20 23 24 24 25 26 27 27 28 28 29 28 28 29 29 29 29 28 27 27 26 25 24 23 22 22 21
13 13 15 13 15 18 18 18 18 18 18 18 18 18 18 19 18 18 19 22 23 24 24 24 26 26 27 27 27 27 28 28 28 27 27 26 26 25 24 23 22 22 21 21
12 14 14 15 16 16 17 17 17 17 17 17 17 17 17 17 18 18 18 20 21 22 21 22 23 24 25 26 27 26 26 26 27 26 26 25 24 23 23 22 22 21 21 21
12 13 13 13 12 12 14 16 17 17 17 17 17 16 16 16 17 18 19 20 20 19 19 20 21 22 22 23 23 23 24 24 24 25 25 24 23 22 22 22 22 22 22 22
8 9 9 9 10 11 12 14 15 15 17 17 16 16 16 17 16 16 18 18 20 19 18 18 19 20 20 21 21 21 22 22 23 23 23 22 22 22 21 21 21 21 22 21
5 6 7 7 8 10 12 13 14 14 14 15 15 15 16 16 16 16 17 17 16 17 17 18 18 19 18 18 19 20 21 21 22 22 22 22 22 21 21 20 20 20 20 20
6 4 4 6 8 10 10 12 13 14 13 14 14 15 15 15 15 15 17 17 17 16 17 18 18 18 18 18 18 19 21 22 22 22 22 22 21 21 21 20 20 20 19 19
6 6 5 4 5 8 10 11 12 13 13 13 13 13 14 13 14 14 16 17 18 17 17 17 17 17 18 17 18 19 20 20 21 21 21 21 20 20 20 19 19 19 19 19
5 5 5 4 5 7 8 10 11 12 12 12 12 13 13 13 14 13 14 15 16 17 17 17 16 17 17 17 17 18 19 19 19 19 19 19 19 18 18 17 17 17 17 17
6 5 4 5 6 7 9 10 11 11 11 11 11 12 12 12 14 13 13 14 15 15 15 16 16 17 17 16 17 17 17 17 17 18 18 18 17 17 17 16 16 15 14 14
5 5 6 6 7 8 9 9 9 9 10 10 11 11 12 12 11 12 12 12 13 14 14 14 15 16 16 16 16 15 15 15 15 15 15 15 14 15 15 15 14 13 13 12
3 4 4 4 6 8 8 7 7 7 7 8 8 8 9 10 9 10 10 12 12 13 14 14 14 15 16 15 15 15 15 14 13 13 12 12 12 12 12 12 12 12 12 11
4 4 4 4 4 5 5 5 5 5 5 6 5 5 6 6 7 8 10 9 8 9 10 10 11 12 13 13 13 13 13 12 12 12 12 12 11 10 10 10 10 10 9 9
4 4 3 3 3 3 3 3 4 3 3 3 3 3 3 4 6 7 7 8 7 9 10 10 11 12 12 12 12 12 12 11 11 10 10 10 10 9 9 9 9 9 9 9
5 5 4 4 3 2 2 2 2 3 3 3 2 2 3 3 3 4 4 5 5 7 8 8 9 10 11 11 11 11 11 10 10 10 9 9 9 8 8 8 7 7 7 8
6 6 5 4 4 4 3 3 3 3 2 2 2 3 3 2 3 4 5 4 5 5 6 7 8 9 9 9 10 9 9 9 9 9 8 8 8 7 6 6 6 6 6 7
8 7 6 5 5 4 4 4 4 4 4 4 3 2 2 2 3 4 4 3 4 5 5 6 7 7 8 8 7 7 7 7 7 7 7 7 7 7 7 6 6 5 5 5
8 8 7 7 6 6 6 5 5 5 5 4 4 4 2 2 3 3 3 3 4 4 5 6 6 6 6 7 7 8 8 8 7 7 7 7 6 6 6 5 5 5 5 4
8 7 7 7 7 7 6 6 6 5 5 5 5 5 4 4 4 4 5 5 4 4 4 5 6 6 6 5 6 6 7 6 6 6 6 6 6 5 5 5 4 4 4 4
8 7 7 7 6 7 6 6 5 5 5 5 5 5 5 5 5 5 5 5 5 6 5 5 5 5 5 5 5 5 5 5 5 5 5 5 5 4 4 3 3 3 3 3
Height
1365 1354 1353 1351 1357 1362 1374 1384 1396 1392 1395 1374 1365 1364 1365 1369 1375 1380 1387 1395 1404 1412 1419 1426 1433 1439 1446 1454 1462 1468 1473 1477 1480 1486 1492 1496 1500 1503 1508 1513 1517 1522 1526 1531
1366 1352 1353 1358 1346 1350 1362 1369 1379 1377 1386 1365 1365 1366 1370 1375 1379 1384 1389 1393 1400 1407 1413 1419 1425 1431 1438 1447 1454 1460 1465 1467 1474 1479 1484 1488 1492 1496 1500 1504 1509 1513 1516 1520
1381 1358 1357 1368 1357 1349 1355 1358 1367 1383 1372 1366 1370 1369 1371 1378 1384 1388 1392 1400 1404 1410 1414 1420 1424 1429 1434 1441 1447 1453 1457 1462 1466 1471 1476 1480 1485 1489 1493 1497 1501 1504 1507 1510
1393 1369 1392 1360 1345 1346 1348 1354 1357 1359 1360 1363 1370 1378 1378 1379 1383 1391 1394 1400 1405 1411 1418 1422 1427 1428 1433 1439 1444 1448 1451 1456 1461 1464 1468 1473 1477 1480 1485 1489 1492 1495 1497 1501
1402 1384 1368 1356 1363 1367 1350 1388 1383 1371 1359 1362 1369 1372 1387 1389 1389 1393 1396 1400 1405 1410 1415 1420 1425 1429 1432 1435 1440 1443 1447 1450 1454 1458 1462 1466 1469 1473 1478 1482 1485 1487 1490 1493
1405 1399 1386 1394 1371 1353 1353 1404 1395 1382 1371 1364 1369 1394 1401 1396 1394 1395 1398 1401 1405 1410 1414 1419 1422 1425 1428 1431 1435 1437 1441 1444 1449 1454 1457 1459 1462 1466 1470 1474 1477 1480 1482 1483
1406 1404 1402 1390 1378 1355 1380 1430 1406 1395 1389 1382 1390 1400 1402 1400 1398 1398 1400 1403 1407 1410 1415 1418 1421 1424 1425 1428 1430 1434 1439 1444 1448 1450 1451 1453 1457 1460 1463 1466 1470 1473 1475 1477
1407 1409 1423 1409 1393 1396 1411 1413 1408 1404 1400 1401 1401 1404 1405 1405 1405 1405 1404 1407 1408 1411 1414 1416 1418 1419 1422 1425 1428 1431 1435 1438 1441 1444 1447 1450 1452 1454 1457 1460 1463 1466 1469 1471
1428 1432 1423 1427 1419 1415 1410 1409 1411 1411 1410 1410 1407 1409 1410 1411 1410 1410 1407 1406 1410 1414 1416 1416 1418 1419 1420 1422 1426 1428 1430 1432 1434 1438 1441 1444 1447 1449 1451 1454 1456 1459 1463 1465
1427 1422 1424 1424 1422 1421 1414 1414 1416 1417 1416 1415 1413 1414 1415 1413 1413 1411 1408 1407 1412 1415 1418 1418 1418 1418 1418 1419 1420 1422 1424 1426 1429 1431 1435 1438 1441 1443 1446 1448 1451 1454 1457 1459
1425 1423 1421 1417 1423 1425 1419 1417 1417 1417 1417 1418 1418 1417 1418 1419 1416 1412 1409 1408 1412 1415 1418 1419 1418 1419 1418 1418 1419 1420 1421 1422 1424 1426 1428 1432 1436 1439 1441 1445 1447 1449 1451 1454
1436 1433 1437 1428 1423 1421 1419 1419 1419 1417 1414 1413 1415 1418 1418 1417 1416 1411 1409 1410 1413 1415 1417 1417 1418 1418 1418 1417 1418 1418 1419 1420 1421 1422 1424 1427 1431 1432 1436 1439 1441 1444 1446 1448
1430 1427 1425 1423 1423 1422 1422 1420 1419 1418 1416 1417 1416 1416 1416 1411 1406 1405 1409 1413 1415 1417 1417 1417 1418 1418 1417 1415 1415 1416 1417 1417 1418 1419 1420 1422 1425 1427 1429 1432 1435 1438 1440 1442
1420 1421 1410 1412 1414 1417 1418 1417 1416 1415 1417 1418 1419 1418 1415 1413 1412 1411 1414 1415 1416 1417 1417 1417 1416 1416 1416 1414 1413 1414 1416 1415 1415 1416 1417 1419 1421 1424 1425 1428 1432 1434 1438 1439
1407 1407 1399 1403 1408 1411 1413 1414 1414 1415 1415 1416 1417 1417 1416 1414 1414 1415 1415 1416 1416 1415 1416 1415 1415 1415 1414 1414 1414 1414 1415 1415 1416 1416 1419 1420 1421 1423 1426 1427 1429 1430 1433 1434
1399 1385 1391 1395 1402 1408 1410 1410 1412 1413 1415 1415 1415 1416 1416 1416 1417 1416 1416 1417 1417 1415 1414 1413 1414 1414 1414 1412 1413 1415 1415 1416 1415 1415 1416 1418 1420 1421 1422 1424 1425 1426 1428 1431
1399 1394 1394 1397 1401 1404 1406 1410 1411 1411 1410 1410 1413 1415 1415 1415 1415 1415 1414 1413 1414 1412 1411 1411 1413 1413 1413 1413 1413 1415 1414 1415 1416 1416 1417 1418 1420 1421 1422 1423 1424 1426 1429 1431
1408 1403 1400 1400 1400 1402 1405 1407 1408 1408 1407 1407 1407 1407 1408 1409 1411 1409 1409 1408 1412 1409 1408 1410 1412 1413 1414 1412 1411 1414 1414 1413 1415 1417 1418 1419 1420 1422 1424 1425 1426 1427 1429 1430
1417 1413 1409 1403 1399 1401 1404 1406 1407 1405 1404 1405 1406 1404 1403 1405 1408 1409 1406 1406 1411 1411 1411 1411 1413 1412 1407 1411 1411 1413 1416 1417 1418 1419 1420 1421 1423 1425 1427 1428 1429 1429 1430 1430
1430 1423 1417 1412 1409 1409 1410 1410 1407 1406 1405 1404 1405 1406 1403 1404 1406 1407 1405 1407 1411 1413 1414 1413 1414 1410 1404 1408 1412 1414 1417 1419 1420 1422 1422 1422 1424 1427 1429 1431 1432 1432 1431 1430
1440 1436 1433 1429 1425 1421 1418 1420 1413 1412 1412 1411 1411 1411 1407 1407 1404 1406 1408 1407 1413 1414 1412 1419 1398 1405 1407 1410 1419 1419 1421 1422 1425 1424 1427 1426 1429 1430 1431 1431 1433 1433 1432 1431
1448 1444 1441 1439 1437 1434 1432 1428 1423 1422 1418 1419 1418 1416 1412 1411 1412 1406 1409 1414 1415 1412 1414 1415 1411 1405 1408 1411 1419 1426 1424 1431 1433 1427 1426 1430 1432 1433 1434 1434 1433 1432 1432 1430
1453 1450 1448 1445 1442 1441 1439 1437 1433 1428 1426 1425 1421 1418 1417 1418 1412 1404 1407 1413 1414 1414 1412 1413 1414 1411 1413 1417 1419 1427 1435 1437 1438 1435 1432 1434 1435 1435 1437 1438 1436 1431 1429 1431
1456 1454 1452 1450 1448 1446 1444 1443 1441 1439 1436 1433 1430 1429 1427 1423 1421 1422 1424 1425 1425 1428 1427 1426 1427 1420 1424 1427 1431 1434 1439 1442 1439 1439 1438 1437 1437 1440 1436 1435 1433 1432 1435 1435
1460 1458 1456 1455 1453 1451 1448 1448 1447 1445 1444 1443 1440 1437 1435 1436 1436 1435 1434 1433 1433 1434 1437 1435 1427 1430 1434 1437 1441 1444 1444 1445 1445 1441 1438 1440 1443 1443 1438 1439 1438 1439 1438 1434
1462 1459 1458 1457 1456 1454 1453 1451 1449 1448 1446 1445 1444 1445 1444 1440 1439 1440 1441 1443 1441 1442 1439 1437 1435 1437 1441 1442 1444 1446 1446 1447 1446 1442 1439 1442 1446 1444 1445 1442 1440 1439 1436 1434
1465 1463 1461 1460 1460 1458 1455 1454 1453 1453 1451 1449 1448 1446 1443 1444 1446 1447 1446 1445 1443 1441 1440 1440 1441 1443 1444 1447 1448 1450 1451 1450 1447 1445 1444 1445 1447 1446 1444 1443 1442 1439 1436 1436
Wind_Speed
14 14 13 17 25 22 23 13 17 12 7 5 2 7 7 16 16 24 28 44 46 48 48 51 51 51 50 48 46 46 44 44 45 43 41 41 42 42 41 43 46 46 45 44
5 11 14 18 26 23 21 19 10 14 8 8 7 23 21 24 25 26 22 25 33 41 50 55 54 50 50 50 47 45 45 41 39 40 40 42 43 43 44 43 42 43 45 46
5 5 6 3 14 24 18 18 16 13 8 6 7 12 15 25 23 21 23 22 20 18 33 37 46 51 50 49 47 47 47 45 43 41 39 40 39 41 44 44 44 44 45 46
5 5 2 7 4 11 18 9 19 14 11 12 9 21 23 27 26 18 17 16 15 12 10 13 10 34 47 48 48 46 47 47 46 46 44 41 41 41 41 42 44 44 45 45
4 2 3 4 12 11 4 11 23 11 4 14 28 36 26 29 28 25 20 15 10 8 6 3 12 13 28 42 48 48 45 46 47 47 46 45 46 45 43 43 42 44 45 46
4 4 2 12 26 32 8 11 20 20 19 14 22 11 5 25 24 22 19 14 7 3 5 6 7 20 28 32 35 45 46 44 42 40 44 45 45 46 45 45 45 43 44 44
4 3 6 18 24 19 7 3 17 25 24 31 17 14 23 23 26 21 17 14 5 1 4 6 3 0 11 26 36 35 35 35 37 40 43 44 41 42 45 46 45 46 45 44
1 4 4 34 22 14 6 19 22 27 31 27 31 30 24 22 25 29 21 15 10 5 6 8 10 9 6 8 10 21 32 35 32 31 32 37 40 40 40 41 42 43 42 41
6 2 14 13 19 22 23 20 25 24 27 25 30 30 28 23 23 25 26 21 11 8 10 8 3 9 13 11 12 13 20 20 22 29 30 28 28 34 37 37 36 38 37 36
7 12 15 11 8 22 22 19 20 22 21 23 23 24 25 25 23 22 22 20 14 11 17 7 4 7 11 16 19 22 21 20 25 23 25 23 22 26 28 32 33 32 32 31
9 9 17 16 24 28 30 22 13 15 16 14 15 18 20 21 22 23 17 16 13 11 16 11 11 9 10 13 15 15 14 17 19 22 22 20 19 22 23 23 23 25 24 23
7 23 9 21 29 29 28 26 21 25 15 15 10 13 17 19 19 20 23 18 15 13 12 14 14 16 13 14 13 12 14 16 18 18 18 17 15 19 23 16 21 19 20 21
29 30 33 30 29 25 21 20 19 19 20 18 18 16 18 25 22 21 21 16 16 15 15 16 14 15 13 10 9 10 12 14 12 14 18 17 18 21 26 23 19 20 24 22
34 32 31 27 17 17 21 17 20 16 12 14 15 15 14 18 18 18 19 13 15 12 12 13 14 13 7 5 5 11 7 9 16 16 11 22 19 21 24 22 20 16 13 11
33 33 40 34 22 20 18 17 19 16 13 15 14 17 20 18 16 19 18 14 13 12 8 4 5 6 7 5 4 6 9 13 11 12 13 15 16 18 18 15 11 8 5 6
25 20 26 28 20 17 18 19 20 18 17 17 18 17 20 20 19 18 17 10 10 11 10 5 5 5 4 3 9 7 9 11 12 17 16 19 17 18 16 13 10 4 2 2
17 9 8 9 13 16 15 15 16 17 17 21 23 23 21 20 22 16 8 15 17 13 11 12 11 9 11 9 4 11 14 15 15 15 13 15 16 18 17 14 12 9 4 2
38 26 18 11 8 12 13 12 16 15 16 19 24 22 22 20 14 12 15 15 13 15 15 11 8 14 13 12 12 13 14 13 12 11 10 10 9 8 9 8 7 6 2 2
47 42 43 39 15 7 10 9 2 4 6 7 8 1 7 10 16 14 16 15 12 11 9 12 15 16 22 22 19 16 16 20 21 22 19 17 15 15 15 13 11 9 7 5
43 39 43 46 38 31 25 20 16 19 22 19 22 25 28 29 30 31 25 33 32 30 21 22 22 23 24 18 20 22 19 20 20 19 16 15 14 17 17 14 13 13 12 11
33 38 36 35 38 36 35 31 36 35 32 32 34 33 34 32 34 36 34 34 30 33 34 27 38 34 33 32 26 22 20 17 17 21 20 21 20 19 18 17 17 16 16 16
21 27 28 31 30 31 30 30 33 31 32 31 30 30 34 34 32 36 35 31 27 30 30 30 32 35 34 35 33 28 26 20 20 22 23 22 22 21 20 19 18 19 19 18
10 17 18 22 24 24 25 30 31 30 30 25 27 29 29 28 30 36 34 28 28 28 28 28 24 22 23 24 26 24 21 22 23 24 22 21 21 23 19 16 16 16 16 16
14 13 11 13 17 21 23 21 22 22 22 27 28 23 24 24 24 22 21 19 17 15 21 22 19 21 19 17 20 22 19 15 14 16 17 17 14 10 14 15 14 12 10 11
10 15 16 18 12 12 17 17 15 10 18 17 15 23 18 19 18 19 17 17 15 12 14 14 16 14 16 10 10 13 21 21 18 20 20 17 13 11 11 9 8 7 8 12
13 9 13 15 13 15 14 17 14 17 13 16 15 14 15 16 17 15 12 12 13 18 16 19 18 18 18 17 12 10 14 16 14 15 17 17 17 15 9 6 7 11 12 15
10 13 14 18 15 11 9 12 14 13 13 15 16 16 15 15 13 14 14 13 16 16 17 17 17 15 16 14 12 12 16 13 13 13 12 11 12 17 17 8 7 8 12 15
Wind_Direction
267 270 266 237 199 197 207 202 207 227 219 201 71 89 105 131 135 179 172 174 172 181 182 190 197 202 206 211 214 218 225 230 232 233 235 235 235 238 237 236 238 238 238 236
291 262 265 272 201 193 204 212 235 221 234 198 151 103 85 88 99 96 98 169 172 177 184 191 201 205 207 209 213 216 221 230 234 235 235 237 238 238 240 242 239 241 243 242
302 279 285 213 248 196 204 202 210 234 195 169 126 127 127 109 97 92 89 88 99 118 190 191 196 203 207 211 215 216 220 226 229 231 234 236 239 240 241 242 245 245 245 247
285 33 112 257 322 304 197 199 210 230 168 164 127 65 79 109 115 98 89 81 78 86 127 152 176 210 213 213 213 218 222 226 228 232 235 237 239 240 242 243 245 248 250 249
319 310 298 268 3 346 249 54 7 351 180 119 97 70 36 54 68 69 76 76 73 69 55 180 201 206 207 213 214 217 221 228 230 234 238 240 241 242 244 245 247 250 253 255
348 310 192 357 340 325 305 57 2 15 32 108 88 79 33 46 54 60 66 67 76 67 42 67 79 212 208 209 210 215 221 227 230 234 237 241 246 246 246 248 250 252 253 256
282 296 1 342 345 15 69 55 12 20 28 54 70 75 61 56 49 45 47 55 76 109 341 24 339 244 173 212 222 230 230 232 233 235 239 244 245 246 246 244 247 248 252 255
11 359 16 355 14 57 84 43 35 21 23 46 52 53 51 42 41 44 56 47 43 31 349 320 315 289 267 203 198 224 235 238 237 238 239 243 247 250 246 245 244 246 250 254
338 92 71 360 338 9 37 39 25 25 22 34 36 33 33 27 28 31 42 55 62 30 9 353 243 274 275 257 239 238 229 234 238 241 242 241 243 243 242 241 240 243 247 254
328 7 340 33 354 349 353 9 5 9 20 29 30 22 18 20 17 18 29 43 38 30 23 334 272 251 258 266 263 260 258 253 241 236 233 234 239 238 237 239 241 245 250 253
303 23 342 356 354 350 342 353 345 342 347 0 16 10 4 10 4 3 12 21 11 359 8 330 299 281 266 251 250 249 248 238 229 225 230 235 228 232 234 238 245 247 248 248
293 312 319 307 322 327 337 344 348 5 339 342 351 6 344 349 3 358 2 353 346 335 316 307 305 306 303 278 260 245 229 224 215 216 221 220 210 212 221 229 234 232 235 238
291 293 296 293 301 307 317 325 331 344 358 2 358 358 351 341 349 354 353 343 332 313 300 296 295 300 310 303 261 221 217 219 209 205 213 207 209 202 204 205 210 215 230 233
295 289 283 266 270 292 298 310 322 317 333 340 345 350 335 7 359 352 337 309 302 287 272 284 283 273 271 297 254 212 163 166 187 190 186 192 189 208 213 201 193 198 205 234
292 274 262 261 262 259 268 292 309 319 314 311 323 330 336 340 344 337 320 307 296 280 237 245 233 225 236 259 243 182 173 163 156 167 153 158 149 145 149 163 175 197 226 262
327 266 244 236 242 248 264 273 289 292 299 303 304 306 311 309 313 309 309 282 236 229 214 194 190 194 161 112 204 193 171 166 155 148 142 148 145 147 147 136 139 151 214 256
15 68 148 209 241 247 253 270 286 279 285 294 296 288 297 300 282 303 284 226 213 193 167 177 186 183 161 167 196 162 155 153 159 159 147 145 145 141 140 146 146 139 133 17
41 44 36 4 265 248 249 269 280 281 278 278 279 283 283 285 280 226 197 163 173 172 159 125 190 174 165 152 150 144 140 145 153 141 135 134 132 142 149 155 155 139 117 29
38 39 43 44 53 245 259 285 262 225 241 275 286 247 208 200 175 154 146 164 148 150 150 123 112 150 160 149 153 148 138 121 116 109 102 98 92 91 93 96 98 101 99 81
37 41 47 47 59 67 74 95 112 104 105 116 113 114 124 122 122 113 120 99 88 95 103 108 108 110 100 108 108 116 125 117 116 115 117 109 103 95 96 94 93 87 81 72
48 42 44 53 53 56 64 62 79 82 80 78 74 72 83 95 101 109 101 89 84 98 107 100 96 100 101 104 97 99 99 103 110 112 104 102 104 100 95 90 83 75 69 64
55 57 57 55 57 56 54 57 62 67 72 70 72 71 69 69 72 81 76 74 69 78 84 86 94 92 100 104 103 102 99 99 92 91 93 93 92 84 77 78 76 70 63 58
45 52 65 65 63 63 56 52 54 53 57 59 59 55 54 53 53 61 61 58 57 57 59 56 58 82 85 95 101 99 94 99 95 100 95 92 94 97 91 75 68 54 44 39
39 63 68 77 71 69 64 55 50 46 49 47 46 46 44 47 54 63 67 58 57 59 71 74 72 70 72 77 82 89 90 86 97 100 100 100 97 110 103 98 83 67 42 38
65 50 59 65 79 76 72 58 50 59 62 59 44 44 66 61 77 72 75 76 79 102 90 84 77 92 81 105 115 111 93 92 95 99 90 77 65 55 60 66 65 47 27 18
38 98 75 68 68 62 65 53 45 48 62 58 57 59 56 63 76 73 72 83 74 77 104 85 87 97 91 86 83 104 102 91 90 98 104 104 92 82 67 52 34 16 7 1
51 50 59 50 38 55 71 56 50 47 60 67 60 50 50 59 67 72 74 77 79 82 72 84 78 83 87 81 93 93 82 82 83 88 102 114 101 88 74 82 59 21 353 354